Find Starlink 30174

NORAD ID: 57609 Int'l Des: 2023-119 Owner: SPXS Country: US Constellation: starlink operational
LEOCIRCULAR

現在のビュー

3D地球を読み込み中...

About Starlink 30174

Starlink 30174 (NORAD 57609) is a starlink constellation satellite (v2 mini) launched Aug 11, 2023 by SPXS of US. It operates in LEO, CIRCULAR orbit with a mass of 730.00 kg.

次回通過

Passes for default location (London). Set your location on the main map for personalized predictions.

高度履歴

Loading altitude history...

軌道要素

1 57609U 23119H 26262.19322612 .00001432 00000-0 61557-4 0 9995
2 57609 43.0072 68.4783 0001970 260.3468 99.7161 15.27574819172683
Epoch: Sep 19, 2026 • Age: 51 hours

現在のステータス

高度 486.9 km
遠地点 / 近地点 N/A
速度 7.63 km/s
衛星直下点 40.51°N, 14.56°E
打ち上げ日 Aug 11, 2023
運用期間 3.1 years
タイプ internet

技術仕様

分類 Payload
質量 730.00 kg
乾燥質量 700.00 kg
長さ 0.30 m
スパン 29.00 m
形状 ? Box + pan
製造者 SPXS
バスタイプ Starlink V2M
フェーズステータス In Orbit
所有者/国 SPXS/US

Most Searched